| time (UTC) | temp F | wind direction | speed MPH | gust MPH | rain 1hr in | rain 24hr in | rain mn in | humidity % | barometer mb |
| 20260902040001 | 65 | 191 | 0.0 | 0.0 | 0.00 | 0.00 | 0.00 | 78 | 988.3 |
| 20260902035503 | 65 | 191 | 0.0 | 0.0 | 0.00 | 0.00 | 0.00 | 77 | 988.1 |
| 20260902035001 | 65 | 191 | 0.0 | 0.0 | 0.00 | 0.00 | 0.00 | 76 | 988.2 |
| 20260902034501 | 66 | 191 | 0.0 | 0.0 | 0.00 | 0.00 | 0.00 | 76 | 988.1 |
| 20260902034000 | 66 | 191 | 0.0 | 0.0 | 0.00 | 0.00 | 0.00 | 76 | 988.0 |
| 20260902033500 | 66 | 191 | 0.0 | 0.0 | 0.00 | 0.00 | 0.00 | 76 | 988.0 |
| 20260902033101 | 66 | 191 | 0.0 | 1.0 | 0.00 | 0.00 | 0.00 | 76 | 987.9 |
| 20260902032601 | 66 | 191 | 0.0 | 1.0 | 0.00 | 0.00 | 0.00 | 75 | 987.8 |
| 20260902032100 | 66 | 191 | 0.0 | 2.0 | 0.00 | 0.00 | 0.00 | 76 | 987.9 |
| 20260902031600 | 67 | 191 | 1.0 | 2.0 | 0.00 | 0.00 | 0.00 | 75 | 987.9 |
| 20260902031100 | 67 | 191 | 0.0 | 2.0 | 0.00 | 0.00 | 0.00 | 75 | 987.8 |
| 20260902030600 | 67 | 191 | 0.0 | 3.0 | 0.00 | 0.00 | 0.00 | 74 | 987.7 |
| 20260902030100 | 67 | 191 | 0.0 | 3.0 | 0.00 | 0.00 | 0.00 | 74 | 987.6 |
| 20260902025559 | 68 | 194 | 0.0 | 3.0 | 0.00 | 0.00 | 0.00 | 73 | 987.6 |
| 20260902025102 | 68 | 194 | 1.0 | 3.0 | 0.00 | 0.00 | 0.00 | 73 | 987.6 |
| 20260902024600 | 68 | 194 | 1.0 | 3.0 | 0.00 | 0.00 | 0.00 | 72 | 987.6 |
| 20260902024059 | 69 | 194 | 0.0 | 3.0 | 0.00 | 0.00 | 0.00 | 71 | 987.5 |
| 20260902023559 | 69 | 194 | 0.0 | 4.0 | 0.00 | 0.00 | 0.00 | 70 | 987.5 |
| 20260902023110 | 69 | 194 | 1.0 | 4.0 | 0.00 | 0.00 | 0.00 | 69 | 987.5 |
| 20260902022603 | 70 | 193 | 1.0 | 5.0 | 0.00 | 0.00 | 0.00 | 68 | 987.5 |
| 20260902022101 | 70 | 190 | 1.0 | 5.0 | 0.00 | 0.00 | 0.00 | 67 | 987.4 |
| 20260902021602 | 71 | 190 | 2.0 | 4.0 | 0.00 | 0.00 | 0.00 | 67 | 987.3 |
| 20260902021058 | 71 | 192 | 2.0 | 4.0 | 0.00 | 0.00 | 0.00 | 66 | 987.3 |
| 20260902020558 | 72 | 192 | 2.0 | 5.0 | 0.00 | 0.00 | 0.00 | 65 | 987.3 |
| 20260902020058 | 72 | 193 | 2.0 | 5.0 | 0.00 | 0.00 | 0.00 | 63 | 987.3 |
| 20260902015600 | 73 | 192 | 2.0 | 5.0 | 0.00 | 0.00 | 0.00 | 62 | 987.3 |
| 20260902015057 | 73 | 192 | 2.0 | 5.0 | 0.00 | 0.00 | 0.00 | 61 | 987.3 |
| 20260902014557 | 74 | 192 | 1.0 | 5.0 | 0.00 | 0.00 | 0.00 | 60 | 987.2 |
| 20260902014056 | 74 | 192 | 2.0 | 6.0 | 0.00 | 0.00 | 0.00 | 59 | 987.2 |
| 20260902013556 | 75 | 190 | 2.0 | 6.0 | 0.00 | 0.00 | 0.00 | 58 | 987.3 |
| 20260902013157 | 75 | 187 | 4.0 | 6.0 | 0.00 | 0.00 | 0.00 | 57 | 987.3 |
| 20260902012555 | 76 | 197 | 2.0 | 4.0 | 0.00 | 0.00 | 0.00 | 55 | 987.3 |
| 20260902012055 | 76 | 198 | 1.0 | 5.0 | 0.00 | 0.00 | 0.00 | 55 | 987.3 |
| 20260902011625 | 76 | 198 | 2.0 | 5.0 | 0.00 | 0.00 | 0.00 | 54 | 987.2 |
| 20260902011055 | 76 | 198 | 2.0 | 5.0 | 0.00 | 0.00 | 0.00 | 54 | 987.2 |
| 20260902010554 | 76 | 199 | 3.0 | 5.0 | 0.00 | 0.00 | 0.00 | 55 | 987.3 |
| 20260902010054 | 76 | 199 | 2.0 | 6.0 | 0.00 | 0.00 | 0.00 | 56 | 987.2 |
| 20260902005554 | 76 | 206 | 3.0 | 6.0 | 0.00 | 0.00 | 0.00 | 57 | 987.3 |
| 20260902005054 | 76 | 226 | 3.0 | 7.0 | 0.00 | 0.00 | 0.00 | 57 | 987.3 |
| 20260902004554 | 76 | 181 | 2.0 | 7.0 | 0.00 | 0.00 | 0.00 | 55 | 987.3 |
| 20260902004057 | 76 | 193 | 3.0 | 6.0 | 0.00 | 0.00 | 0.00 | 55 | 987.4 |
| 20260902003553 | 76 | 168 | 4.0 | 6.0 | 0.00 | 0.00 | 0.00 | 54 | 987.4 |
| 20260902003058 | 77 | 220 | 2.0 | 7.0 | 0.00 | 0.00 | 0.00 | 54 | 987.3 |
| 20260902002555 | 77 | 217 | 3.0 | 7.0 | 0.00 | 0.00 | 0.00 | 55 | 987.4 |
| 20260902002052 | 77 | 215 | 4.0 | 8.0 | 0.00 | 0.00 | 0.00 | 54 | 987.3 |
| 20260902001556 | 77 | 178 | 3.0 | 8.0 | 0.00 | 0.00 | 0.00 | 53 | 987.4 |
| 20260902001052 | 78 | 138 | 3.0 | 7.0 | 0.00 | 0.00 | 0.00 | 52 | 987.5 |
| 20260902000552 | 78 | 169 | 3.0 | 8.0 | 0.00 | 0.00 | 0.00 | 51 | 987.5 |
| 20260902000055 | 79 | 209 | 4.0 | 9.0 | 0.00 | 0.00 | 0.00 | 50 | 987.4 |
| 20260901235552 | 79 | 169 | 4.0 | 8.0 | 0.00 | 0.00 | 0.00 | 49 | 987.4 |
| 20260901235052 | 79 | 186 | 3.0 | 8.0 | 0.00 | 0.00 | 0.00 | 51 | 987.4 |
| 20260901234558 | 79 | 149 | 4.0 | 8.0 | 0.00 | 0.00 | 0.00 | 50 | 987.5 |
| 20260901234050 | 79 | 204 | 3.0 | 7.0 | 0.00 | 0.00 | 0.00 | 51 | 987.6 |
| 20260901233551 | 79 | 152 | 4.0 | 7.0 | 0.00 | 0.00 | 0.00 | 51 | 987.5 |
| 20260901233051 | 79 | 202 | 4.0 | 7.0 | 0.00 | 0.00 | 0.00 | 51 | 987.5 |
| 20260901232550 | 79 | 188 | 5.0 | 7.0 | 0.00 | 0.00 | 0.00 | 50 | 987.6 |
| 20260901232150 | 80 | 198 | 4.0 | 7.0 | 0.00 | 0.00 | 0.00 | 50 | 987.6 |
| 20260901231607 | 79 | 194 | 4.0 | 8.0 | 0.00 | 0.00 | 0.00 | 51 | 987.8 |
| 20260901231049 | 79 | 167 | 4.0 | 8.0 | 0.00 | 0.00 | 0.00 | 52 | 987.7 |
| 20260901230549 | 79 | 171 | 3.0 | 8.0 | 0.00 | 0.00 | 0.00 | 52 | 987.8 |
| 20260901230058 | 79 | 190 | 5.0 | 10.0 | 0.00 | 0.00 | 0.00 | 52 | 987.9 |
| 20260901225546 | 79 | 151 | 5.0 | 10.0 | 0.00 | 0.00 | 0.00 | 51 | 987.8 |
| 20260901225047 | 79 | 190 | 4.0 | 10.0 | 0.00 | 0.00 | 0.00 | 52 | 987.9 |
| 20260901224547 | 79 | 154 | 6.0 | 10.0 | 0.00 | 0.00 | 0.00 | 51 | 987.9 |
| 20260901224047 | 79 | 161 | 4.0 | 11.0 | 0.00 | 0.00 | 0.00 | 54 | 987.9 |
| 20260901223550 | 78 | 191 | 5.0 | 11.0 | 0.00 | 0.00 | 0.00 | 53 | 988.0 |
| 20260901223046 | 78 | 167 | 6.0 | 10.0 | 0.00 | 0.00 | 0.00 | 53 | 988.1 |
| 20260901222547 | 78 | 167 | 5.0 | 9.0 | 0.00 | 0.00 | 0.00 | 54 | 988.1 |
| 20260901222046 | 78 | 190 | 6.0 | 10.0 | 0.00 | 0.00 | 0.00 | 54 | 988.3 |
| 20260901221609 | 78 | 178 | 5.0 | 10.0 | 0.00 | 0.00 | 0.00 | 53 | 988.2 |
| 20260901221046 | 79 | 188 | 5.0 | 10.0 | 0.00 | 0.00 | 0.00 | 53 | 988.3 |
| 20260901220548 | 79 | 178 | 4.0 | 9.0 | 0.00 | 0.00 | 0.00 | 53 | 988.3 |
| 20260901220100 | 79 | 202 | 6.0 | 14.0 | 0.00 | 0.00 | 0.00 | 52 | 988.3 |
| 20260901215545 | 79 | 175 | 6.0 | 14.0 | 0.00 | 0.00 | 0.00 | 52 | 988.3 |
| 20260901215045 | 79 | 158 | 5.0 | 10.0 | 0.00 | 0.00 | 0.00 | 52 | 988.3 |
| 20260901214544 | 79 | 221 | 4.0 | 10.0 | 0.00 | 0.00 | 0.00 | 52 | 988.3 |
| 20260901214044 | 79 | 198 | 5.0 | 10.0 | 0.00 | 0.00 | 0.00 | 52 | 988.5 |
| 20260901213544 | 79 | 211 | 6.0 | 9.0 | 0.00 | 0.00 | 0.00 | 53 | 988.5 |
| 20260901213100 | 79 | 201 | 6.0 | 9.0 | 0.00 | 0.00 | 0.00 | 54 | 988.6 |
| 20260901212544 | 79 | 213 | 3.0 | 11.0 | 0.00 | 0.00 | 0.00 | 56 | 988.5 |
| 20260901212045 | 79 | 224 | 5.0 | 11.0 | 0.00 | 0.00 | 0.00 | 56 | 988.5 |
| 20260901211544 | 79 | 214 | 5.0 | 11.0 | 0.00 | 0.00 | 0.00 | 55 | 988.6 |
| 20260901211045 | 79 | 205 | 4.0 | 10.0 | 0.00 | 0.00 | 0.00 | 55 | 988.6 |
| 20260901210543 | 79 | 205 | 4.0 | 10.0 | 0.00 | 0.00 | 0.00 | 56 | 988.4 |
| 20260901210043 | 79 | 175 | 5.0 | 10.0 | 0.00 | 0.00 | 0.00 | 56 | 988.4 |
| 20260901205543 | 79 | 189 | 5.0 | 10.0 | 0.00 | 0.00 | 0.00 | 54 | 988.5 |
| 20260901205042 | 79 | 180 | 4.0 | 14.0 | 0.00 | 0.00 | 0.00 | 55 | 988.4 |
| 20260901204546 | 79 | 188 | 5.0 | 14.0 | 0.00 | 0.00 | 0.00 | 56 | 988.5 |
| 20260901204043 | 79 | 201 | 4.0 | 14.0 | 0.00 | 0.00 | 0.00 | 54 | 988.5 |
| 20260901203546 | 79 | 165 | 3.0 | 9.0 | 0.00 | 0.00 | 0.00 | 57 | 988.5 |
| 20260901203043 | 79 | 196 | 4.0 | 9.0 | 0.00 | 0.00 | 0.00 | 55 | 988.5 |
| 20260901202542 | 79 | 121 | 5.0 | 10.0 | 0.00 | 0.00 | 0.00 | 56 | 988.6 |
| 20260901202046 | 80 | 166 | 5.0 | 12.0 | 0.00 | 0.00 | 0.00 | 56 | 988.6 |
| 20260901201542 | 80 | 182 | 5.0 | 12.0 | 0.00 | 0.00 | 0.00 | 54 | 988.6 |
| 20260901201044 | 80 | 163 | 5.0 | 10.0 | 0.00 | 0.00 | 0.00 | 56 | 988.6 |
| 20260901200540 | 79 | 157 | 5.0 | 11.0 | 0.00 | 0.00 | 0.00 | 55 | 988.7 |
| 20260901200106 | 79 | 167 | 5.0 | 10.0 | 0.00 | 0.00 | 0.00 | 56 | 988.7 |
| 20260901195540 | 80 | 192 | 5.0 | 11.0 | 0.00 | 0.00 | 0.00 | 54 | 988.7 |
| 20260901195042 | 80 | 185 | 4.0 | 11.0 | 0.00 | 0.00 | 0.00 | 55 | 988.8 |
| 20260901194554 | 80 | 137 | 3.0 | 18.0 | 0.00 | 0.00 | 0.00 | 55 | 988.9 |
| 20260901194042 | 79 | 136 | 6.0 | 18.0 | 0.00 | 0.00 | 0.00 | 55 | 988.9 |
| 20260901193538 | 79 | 242 | 4.0 | 9.0 | 0.00 | 0.00 | 0.00 | 56 | 988.9 |
| 20260901193047 | 79 | 134 | 4.0 | 11.0 | 0.00 | 0.00 | 0.00 | 54 | 988.9 |
| 20260901192536 | 78 | 162 | 5.0 | 11.0 | 0.00 | 0.00 | 0.00 | 55 | 988.9 |
| 20260901192037 | 78 | 206 | 3.0 | 8.0 | 0.00 | 0.00 | 0.00 | 56 | 989.0 |
| 20260901191607 | 78 | 184 | 3.0 | 7.0 | 0.00 | 0.00 | 0.00 | 55 | 989.1 |
| 20260901191034 | 77 | 228 | 2.0 | 8.0 | 0.00 | 0.00 | 0.00 | 56 | 989.2 |
| 20260901190536 | 77 | 175 | 1.0 | 8.0 | 0.00 | 0.00 | 0.00 | 55 | 989.2 |
| 20260901190032 | 77 | 175 | 3.0 | 8.0 | 0.00 | 0.00 | 0.00 | 55 | 989.2 |
| 20260901185532 | 77 | 197 | 3.0 | 9.0 | 0.00 | 0.00 | 0.00 | 54 | 989.3 |
| 20260901185031 | 77 | 184 | 6.0 | 9.0 | 0.00 | 0.00 | 0.00 | 54 | 989.2 |
| 20260901184532 | 77 | 169 | 4.0 | 9.0 | 0.00 | 0.00 | 0.00 | 54 | 989.3 |
| 20260901184030 | 78 | 167 | 5.0 | 11.0 | 0.00 | 0.00 | 0.00 | 53 | 989.5 |
| 20260901183528 | 77 | 176 | 5.0 | 11.0 | 0.00 | 0.00 | 0.00 | 53 | 989.5 |
| 20260901183042 | 77 | 202 | 4.0 | 8.0 | 0.00 | 0.00 | 0.00 | 54 | 989.4 |
| 20260901182527 | 76 | 188 | 4.0 | 10.0 | 0.00 | 0.00 | 0.00 | 55 | 989.4 |
| 20260901182026 | 76 | 147 | 3.0 | 10.0 | 0.00 | 0.00 | 0.00 | 53 | 989.4 |
| 20260901181526 | 76 | 158 | 2.0 | 10.0 | 0.00 | 0.00 | 0.00 | 53 | 989.4 |
| 20260901181025 | 76 | 157 | 5.0 | 10.0 | 0.00 | 0.00 | 0.00 | 54 | 989.4 |
| 20260901180521 | 76 | 145 | 3.0 | 7.0 | 0.00 | 0.00 | 0.00 | 53 | 989.4 |
| 20260901180020 | 75 | 136 | 2.0 | 5.0 | 0.00 | 0.00 | 0.00 | 56 | 989.3 |
| 20260901175518 | 74 | 135 | 2.0 | 5.0 | 0.00 | 0.00 | 0.00 | 56 | 989.4 |
| 20260901175019 | 74 | 138 | 1.0 | 7.0 | 0.00 | 0.00 | 0.00 | 56 | 989.5 |
| 20260901174516 | 73 | 198 | 4.0 | 6.0 | 0.00 | 0.00 | 0.00 | 59 | 989.3 |
| 20260901174017 | 72 | 172 | 3.0 | 8.0 | 0.00 | 0.00 | 0.00 | 62 | 989.3 |
| 20260901173513 | 71 | 149 | 2.0 | 8.0 | 0.00 | 0.00 | 0.00 | 68 | 989.3 |
| 20260901173012 | 71 | 174 | 3.0 | 7.0 | 0.00 | 0.00 | 0.00 | 69 | 989.2 |
| 20260901172510 | 70 | 184 | 2.0 | 5.0 | 0.00 | 0.00 | 0.00 | 73 | 989.3 |
| 20260901172009 | 69 | 181 | 2.0 | 5.0 | 0.00 | 0.00 | 0.00 | 76 | 989.2 |
| 20260901171507 | 68 | 181 | 0.0 | 4.0 | 0.00 | 0.00 | 0.00 | 84 | 989.1 |
| 20260901171006 | 67 | 181 | 1.0 | 3.0 | 0.00 | 0.00 | 0.00 | 89 | 989.0 |
| 20260901170504 | 66 | 181 | 1.0 | 3.0 | 0.00 | 0.00 | 0.00 | 91 | 989.1 |
| 20260901170004 | 65 | 181 | 1.0 | 3.0 | 0.00 | 0.00 | 0.00 | 91 | 989.1 |
| 20260901165503 | 65 | 181 | 1.0 | 4.0 | 0.00 | 0.00 | 0.00 | 93 | 989.2 |
| 20260901165101 | 64 | 181 | 1.0 | 4.0 | 0.00 | 0.00 | 0.00 | 94 | 989.1 |
| 20260901164618 | 63 | 182 | 1.0 | 3.0 | 0.00 | 0.00 | 0.00 | 94 | 989.1 |
| 20260901164058 | 62 | 182 | 0.0 | 4.0 | 0.00 | 0.00 | 0.00 | 94 | 989.2 |
| 20260901163556 | 62 | 181 | 0.0 | 4.0 | 0.00 | 0.00 | 0.00 | 94 | 989.3 |
| 20260901163055 | 62 | 181 | 1.0 | 4.0 | 0.00 | 0.00 | 0.00 | 94 | 989.2 |
| 20260901162553 | 61 | 181 | 0.0 | 5.0 | 0.00 | 0.00 | 0.00 | 93 | 989.3 |
| 20260901162053 | 61 | 181 | 3.0 | 5.0 | 0.00 | 0.00 | 0.00 | 93 | 989.3 |
| 20260901161554 | 62 | 182 | 1.0 | 4.0 | 0.00 | 0.00 | 0.00 | 94 | 989.3 |
| 20260901161051 | 62 | 182 | 1.0 | 4.0 | 0.00 | 0.00 | 0.00 | 94 | 989.3 |
| 20260901160549 | 61 | 182 | 1.0 | 4.0 | 0.00 | 0.00 | 0.00 | 95 | 989.3 |
| 20260901160106 | 61 | 182 | 1.0 | 4.0 | 0.00 | 0.00 | 0.00 | 94 | 989.3 |
| 20260901155546 | 61 | 182 | 1.0 | 4.0 | 0.00 | 0.00 | 0.00 | 95 | 989.4 |
| 20260901155045 | 60 | 182 | 1.0 | 5.0 | 0.00 | 0.00 | 0.00 | 94 | 989.3 |
| 20260901154543 | 60 | 183 | 2.0 | 5.0 | 0.00 | 0.00 | 0.00 | 93 | 989.3 |
| 20260901154041 | 60 | 184 | 3.0 | 6.0 | 0.00 | 0.00 | 0.00 | 93 | 989.4 |
| 20260901153540 | 59 | 193 | 3.0 | 6.0 | 0.00 | 0.00 | 0.00 | 93 | 989.4 |
| 20260901153041 | 59 | 192 | 2.0 | 5.0 | 0.00 | 0.00 | 0.00 | 93 | 989.4 |
| 20260901152539 | 59 | 192 | 3.0 | 5.0 | 0.00 | 0.00 | 0.00 | 92 | 989.2 |
| 20260901152039 | 59 | 192 | 2.0 | 5.0 | 0.00 | 0.00 | 0.00 | 91 | 989.3 |
| 20260901151542 | 60 | 192 | 1.0 | 3.0 | 0.00 | 0.00 | 0.00 | 90 | 989.3 |
| 20260901151037 | 60 | 192 | 0.0 | 3.0 | 0.00 | 0.00 | 0.00 | 90 | 989.2 |
| 20260901150534 | 60 | 192 | 0.0 | 1.0 | 0.00 | 0.00 | 0.00 | 91 | 989.1 |
| 20260901150040 | 59 | 192 | 0.0 | 1.0 | 0.00 | 0.00 | 0.00 | 91 | 989.0 |
| 20260901145532 | 59 | 192 | 0.0 | 2.0 | 0.00 | 0.00 | 0.00 | 92 | 989.0 |
| 20260901145032 | 58 | 192 | 0.0 | 2.0 | 0.00 | 0.00 | 0.00 | 93 | 988.9 |
| 20260901144539 | 58 | 192 | 0.0 | 2.0 | 0.00 | 0.00 | 0.00 | 93 | 988.9 |
| 20260901144030 | 57 | 192 | 0.0 | 3.0 | 0.00 | 0.00 | 0.00 | 93 | 988.9 |
| 20260901143531 | 57 | 192 | 0.0 | 3.0 | 0.00 | 0.00 | 0.00 | 93 | 988.7 |
| 20260901143029 | 57 | 192 | 0.0 | 0.0 | 0.00 | 0.00 | 0.00 | 93 | 988.8 |
| 20260901142528 | 57 | 192 | 0.0 | 1.0 | 0.00 | 0.00 | 0.00 | 93 | 988.9 |
| 20260901142028 | 57 | 192 | 0.0 | 2.0 | 0.00 | 0.00 | 0.00 | 93 | 988.8 |
| 20260901141528 | 57 | 192 | 0.0 | 2.0 | 0.00 | 0.00 | 0.00 | 93 | 988.8 |
| 20260901141028 | 57 | 192 | 0.0 | 2.0 | 0.00 | 0.00 | 0.00 | 93 | 988.7 |
| 20260901140526 | 57 | 192 | 0.0 | 3.0 | 0.00 | 0.00 | 0.00 | 93 | 988.7 |
| 20260901140034 | 58 | 192 | 1.0 | 3.0 | 0.00 | 0.00 | 0.00 | 93 | 988.5 |
| 20260901135526 | 58 | 192 | 0.0 | 2.0 | 0.00 | 0.00 | 0.00 | 93 | 988.5 |
| 20260901135026 | 58 | 192 | 0.0 | 2.0 | 0.00 | 0.00 | 0.00 | 93 | 988.5 |
| 20260901134524 | 58 | 192 | 0.0 | 2.0 | 0.00 | 0.00 | 0.00 | 93 | 988.4 |
| 20260901134026 | 58 | 192 | 0.0 | 2.0 | 0.00 | 0.00 | 0.00 | 93 | 988.4 |
| 20260901133523 | 58 | 192 | 0.0 | 3.0 | 0.00 | 0.00 | 0.00 | 93 | 988.3 |
| 20260901133023 | 58 | 192 | 0.0 | 3.0 | 0.00 | 0.00 | 0.00 | 93 | 988.4 |
| 20260901132524 | 58 | 192 | 0.0 | 1.0 | 0.00 | 0.00 | 0.00 | 92 | 988.2 |
| 20260901132024 | 58 | 192 | 0.0 | 1.0 | 0.00 | 0.00 | 0.00 | 92 | 988.2 |
| 20260901131532 | 58 | 192 | 0.0 | 1.0 | 0.00 | 0.00 | 0.00 | 92 | 988.1 |
| 20260901131026 | 58 | 192 | 0.0 | 3.0 | 0.00 | 0.00 | 0.00 | 92 | 988.1 |
| 20260901130525 | 58 | 192 | 0.0 | 3.0 | 0.00 | 0.00 | 0.00 | 92 | 988.0 |
| 20260901130021 | 58 | 192 | 0.0 | 3.0 | 0.00 | 0.00 | 0.00 | 92 | 987.9 |
| 20260901125521 | 57 | 192 | 0.0 | 0.0 | 0.00 | 0.00 | 0.00 | 92 | 987.8 |
| 20260901125021 | 57 | 192 | 0.0 | 1.0 | 0.00 | 0.00 | 0.00 | 92 | 987.9 |
| 20260901124521 | 57 | 192 | 0.0 | 1.0 | 0.00 | 0.00 | 0.00 | 92 | 988.0 |
| 20260901124025 | 57 | 192 | 0.0 | 0.0 | 0.00 | 0.00 | 0.00 | 92 | 988.1 |
| 20260901123523 | 57 | 192 | 0.0 | 0.0 | 0.00 | 0.00 | 0.00 | 92 | 988.1 |
| 20260901123020 | 57 | 192 | 0.0 | 0.0 | 0.00 | 0.00 | 0.00 | 93 | 988.0 |
| 20260901122519 | 57 | 192 | 0.0 | 0.0 | 0.00 | 0.00 | 0.00 | 93 | 988.1 |
| 20260901122019 | 57 | 192 | 0.0 | 0.0 | 0.00 | 0.00 | 0.00 | 93 | 988.1 |
| 20260901121519 | 57 | 192 | 0.0 | 2.0 | 0.00 | 0.00 | 0.00 | 93 | 988.1 |
| 20260901121020 | 57 | 192 | 0.0 | 2.0 | 0.00 | 0.00 | 0.00 | 93 | 988.1 |
| 20260901120519 | 57 | 192 | 0.0 | 0.0 | 0.00 | 0.00 | 0.00 | 93 | 988.0 |
| 20260901120020 | 57 | 192 | 0.0 | 0.0 | 0.00 | 0.00 | 0.00 | 93 | 988.0 |
| 20260901115518 | 57 | 192 | 0.0 | 0.0 | 0.00 | 0.00 | 0.00 | 93 | 988.0 |
| 20260901115019 | 57 | 192 | 0.0 | 0.0 | 0.00 | 0.00 | 0.00 | 93 | 988.1 |
| 20260901114517 | 57 | 192 | 0.0 | 0.0 | 0.00 | 0.00 | 0.00 | 93 | 988.3 |
| 20260901114019 | 57 | 192 | 0.0 | 0.0 | 0.00 | 0.00 | 0.00 | 93 | 988.2 |
| 20260901113521 | 57 | 192 | 0.0 | 0.0 | 0.00 | 0.00 | 0.00 | 93 | 988.3 |
| 20260901113018 | 57 | 192 | 0.0 | 0.0 | 0.00 | 0.00 | 0.00 | 93 | 988.3 |
| 20260901112522 | 57 | 192 | 0.0 | 2.0 | 0.00 | 0.00 | 0.00 | 94 | 988.3 |
| 20260901112016 | 57 | 192 | 0.0 | 2.0 | 0.00 | 0.00 | 0.00 | 94 | 988.3 |
| 20260901111518 | 57 | 192 | 0.0 | 0.0 | 0.00 | 0.00 | 0.00 | 94 | 988.2 |
| 20260901111015 | 56 | 192 | 0.0 | 0.0 | 0.00 | 0.00 | 0.00 | 94 | 988.2 |
| 20260901110515 | 56 | 192 | 0.0 | 0.0 | 0.00 | 0.00 | 0.00 | 93 | 988.1 |
| 20260901110015 | 56 | 192 | 0.0 | 0.0 | 0.00 | 0.00 | 0.00 | 93 | 988.2 |
| 20260901105515 | 56 | 192 | 0.0 | 0.0 | 0.00 | 0.00 | 0.00 | 93 | 988.2 |
| 20260901105018 | 56 | 192 | 0.0 | 0.0 | 0.00 | 0.00 | 0.00 | 93 | 988.1 |
| 20260901104515 | 56 | 192 | 0.0 | 1.0 | 0.00 | 0.00 | 0.00 | 93 | 988.2 |
| 20260901104014 | 56 | 192 | 0.0 | 2.0 | 0.00 | 0.00 | 0.00 | 94 | 988.1 |
| 20260901103515 | 55 | 192 | 0.0 | 3.0 | 0.00 | 0.00 | 0.00 | 93 | 988.1 |
| 20260901103013 | 55 | 192 | 0.0 | 3.0 | 0.00 | 0.00 | 0.00 | 93 | 988.2 |
| 20260901102518 | 55 | 192 | 0.0 | 0.0 | 0.00 | 0.00 | 0.00 | 93 | 988.2 |
| 20260901102013 | 55 | 192 | 0.0 | 0.0 | 0.00 | 0.00 | 0.00 | 92 | 988.1 |
| 20260901101530 | 55 | 192 | 0.0 | 0.0 | 0.00 | 0.00 | 0.00 | 92 | 988.1 |
| 20260901101011 | 55 | 192 | 0.0 | 0.0 | 0.00 | 0.00 | 0.00 | 92 | 988.1 |
| 20260901100510 | 56 | 192 | 0.0 | 0.0 | 0.00 | 0.00 | 0.00 | 93 | 988.0 |
| 20260901100010 | 56 | 192 | 0.0 | 0.0 | 0.00 | 0.00 | 0.00 | 93 | 987.9 |
| 20260901095509 | 56 | 192 | 0.0 | 0.0 | 0.00 | 0.00 | 0.00 | 92 | 987.9 |
| 20260901095009 | 56 | 192 | 0.0 | 0.0 | 0.00 | 0.00 | 0.00 | 92 | 987.9 |
| 20260901094509 | 56 | 192 | 0.0 | 0.0 | 0.00 | 0.00 | 0.00 | 92 | 987.8 |
| 20260901094008 | 56 | 192 | 0.0 | 0.0 | 0.00 | 0.00 | 0.00 | 92 | 987.9 |
| 20260901093507 | 56 | 192 | 0.0 | 0.0 | 0.00 | 0.00 | 0.00 | 92 | 987.9 |
| 20260901093007 | 56 | 192 | 0.0 | 0.0 | 0.00 | 0.00 | 0.00 | 92 | 988.1 |
| 20260901092507 | 56 | 192 | 0.0 | 0.0 | 0.00 | 0.00 | 0.00 | 92 | 987.9 |
| 20260901092007 | 56 | 192 | 0.0 | 0.0 | 0.00 | 0.00 | 0.00 | 92 | 988.0 |
| 20260901091505 | 56 | 192 | 0.0 | 0.0 | 0.00 | 0.00 | 0.00 | 91 | 988.1 |
| 20260901091006 | 56 | 192 | 0.0 | 0.0 | 0.00 | 0.00 | 0.00 | 91 | 988.1 |
| 20260901090508 | 56 | 192 | 0.0 | 0.0 | 0.00 | 0.00 | 0.00 | 91 | 988.2 |
| 20260901090007 | 56 | 192 | 0.0 | 0.0 | 0.00 | 0.00 | 0.00 | 91 | 988.2 |
| 20260901085504 | 57 | 192 | 0.0 | 0.0 | 0.00 | 0.00 | 0.00 | 91 | 988.1 |
| 20260901085004 | 57 | 192 | 0.0 | 0.0 | 0.00 | 0.00 | 0.00 | 91 | 988.3 |
| 20260901084504 | 57 | 192 | 0.0 | 0.0 | 0.00 | 0.00 | 0.00 | 91 | 988.2 |
| 20260901084003 | 57 | 192 | 0.0 | 0.0 | 0.00 | 0.00 | 0.00 | 90 | 988.3 |
| 20260901083502 | 57 | 192 | 0.0 | 0.0 | 0.00 | 0.00 | 0.00 | 90 | 988.3 |
| 20260901083002 | 58 | 192 | 0.0 | 0.0 | 0.00 | 0.00 | 0.00 | 91 | 988.1 |
| 20260901082502 | 58 | 192 | 0.0 | 0.0 | 0.00 | 0.00 | 0.00 | 91 | 988.2 |
| 20260901082002 | 58 | 192 | 0.0 | 0.0 | 0.00 | 0.00 | 0.00 | 91 | 988.3 |
| 20260901081604 | 58 | 192 | 0.0 | 0.0 | 0.00 | 0.00 | 0.00 | 91 | 988.3 |
| 20260901081059 | 58 | 192 | 0.0 | 0.0 | 0.00 | 0.00 | 0.00 | 91 | 988.1 |
| 20260901080559 | 58 | 192 | 0.0 | 0.0 | 0.00 | 0.00 | 0.00 | 91 | 988.1 |
| 20260901080202 | 58 | 192 | 0.0 | 0.0 | 0.00 | 0.00 | 0.00 | 91 | 988.2 |
| 20260901075559 | 58 | 192 | 0.0 | 0.0 | 0.00 | 0.00 | 0.00 | 90 | 988.1 |
| 20260901075057 | 58 | 192 | 0.0 | 0.0 | 0.00 | 0.00 | 0.00 | 90 | 988.1 |
| 20260901074558 | 58 | 192 | 0.0 | 0.0 | 0.00 | 0.00 | 0.00 | 90 | 988.1 |
| 20260901074057 | 58 | 192 | 0.0 | 0.0 | 0.00 | 0.00 | 0.00 | 89 | 988.1 |
| 20260901073557 | 58 | 192 | 0.0 | 0.0 | 0.00 | 0.00 | 0.00 | 89 | 988.0 |
| 20260901073056 | 58 | 192 | 0.0 | 0.0 | 0.00 | 0.00 | 0.00 | 88 | 988.2 |
| 20260901072555 | 58 | 192 | 0.0 | 0.0 | 0.00 | 0.00 | 0.00 | 89 | 988.1 |
| 20260901072058 | 58 | 192 | 0.0 | 0.0 | 0.00 | 0.00 | 0.00 | 89 | 988.0 |
| 20260901071554 | 59 | 192 | 0.0 | 0.0 | 0.00 | 0.00 | 0.00 | 89 | 988.1 |
| 20260901071053 | 59 | 192 | 0.0 | 0.0 | 0.00 | 0.00 | 0.00 | 89 | 988.2 |
| 20260901070552 | 59 | 192 | 0.0 | 0.0 | 0.00 | 0.00 | 0.00 | 88 | 988.1 |
| 20260901065550 | 59 | 192 | 0.0 | 0.0 | 0.00 | 0.00 | 0.00 | 88 | 988.2 |
| 20260901065050 | 59 | 192 | 0.0 | 0.0 | 0.00 | 0.00 | 0.00 | 87 | 988.2 |
| 20260901064559 | 59 | 192 | 0.0 | 0.0 | 0.00 | 0.00 | 0.00 | 87 | 988.2 |
| 20260901064049 | 60 | 192 | 0.0 | 0.0 | 0.00 | 0.00 | 0.00 | 87 | 988.1 |
| 20260901063548 | 60 | 192 | 0.0 | 0.0 | 0.00 | 0.00 | 0.00 | 88 | 988.1 |
| 20260901063057 | 60 | 192 | 0.0 | 0.0 | 0.00 | 0.00 | 0.00 | 88 | 988.1 |
| 20260901062550 | 60 | 192 | 0.0 | 0.0 | 0.00 | 0.00 | 0.00 | 88 | 988.0 |
| 20260901062047 | 60 | 192 | 0.0 | 0.0 | 0.00 | 0.00 | 0.00 | 88 | 988.0 |
| 20260901061600 | 60 | 192 | 0.0 | 0.0 | 0.00 | 0.00 | 0.00 | 88 | 987.8 |
| 20260901061046 | 60 | 192 | 0.0 | 0.0 | 0.00 | 0.00 | 0.00 | 88 | 987.8 |
| 20260901060550 | 60 | 192 | 0.0 | 0.0 | 0.00 | 0.00 | 0.00 | 88 | 987.8 |
| 20260901060045 | 60 | 192 | 0.0 | 0.0 | 0.00 | 0.00 | 0.00 | 87 | 987.8 |
| 20260901055545 | 60 | 192 | 0.0 | 0.0 | 0.00 | 0.00 | 0.00 | 87 | 987.8 |
| 20260901055045 | 61 | 192 | 0.0 | 0.0 | 0.00 | 0.00 | 0.00 | 87 | 987.7 |
| 20260901054550 | 61 | 192 | 0.0 | 0.0 | 0.00 | 0.00 | 0.00 | 87 | 987.7 |
| 20260901054045 | 61 | 192 | 0.0 | 0.0 | 0.00 | 0.00 | 0.00 | 88 | 987.6 |
| 20260901053548 | 61 | 192 | 0.0 | 0.0 | 0.00 | 0.00 | 0.00 | 88 | 987.5 |
| 20260901053044 | 61 | 192 | 0.0 | 0.0 | 0.00 | 0.00 | 0.00 | 87 | 987.5 |
| 20260901052544 | 61 | 192 | 0.0 | 0.0 | 0.00 | 0.00 | 0.00 | 87 | 987.3 |
| 20260901052044 | 61 | 192 | 0.0 | 0.0 | 0.00 | 0.00 | 0.00 | 87 | 987.4 |
| 20260901051545 | 61 | 192 | 0.0 | 0.0 | 0.00 | 0.00 | 0.00 | 87 | 987.4 |
| 20260901051044 | 62 | 192 | 0.0 | 0.0 | 0.00 | 0.00 | 0.00 | 86 | 987.4 |
| 20260901050543 | 62 | 192 | 0.0 | 0.0 | 0.00 | 0.00 | 0.00 | 86 | 987.4 |
| 20260901050044 | 62 | 192 | 0.0 | 0.0 | 0.00 | 0.00 | 0.00 | 86 | 987.4 |
| 20260901045543 | 62 | 192 | 0.0 | 0.0 | 0.00 | 0.00 | 0.00 | 86 | 987.5 |
| 20260901045043 | 63 | 192 | 0.0 | 0.0 | 0.00 | 0.00 | 0.00 | 86 | 987.6 |
| 20260901044559 | 63 | 192 | 0.0 | 0.0 | 0.00 | 0.00 | 0.00 | 86 | 987.5 |
| 20260901044043 | 63 | 192 | 0.0 | 0.0 | 0.00 | 0.00 | 0.00 | 85 | 987.6 |
| 20260901043545 | 63 | 192 | 0.0 | 0.0 | 0.00 | 0.00 | 0.00 | 85 | 987.6 |
| 20260901043044 | 63 | 192 | 0.0 | 0.0 | 0.00 | 0.00 | 0.00 | 85 | 987.5 |
| 20260901042542 | 63 | 192 | 0.0 | 0.0 | 0.00 | 0.00 | 0.00 | 85 | 987.6 |
| 20260901042042 | 64 | 192 | 0.0 | 2.0 | 0.00 | 0.00 | 0.00 | 84 | 987.5 |
| 20260901041543 | 64 | 192 | 0.0 | 3.0 | 0.00 | 0.00 | 0.00 | 84 | 987.5 |
| 20260901041042 | 64 | 192 | 1.0 | 3.0 | 0.00 | 0.00 | 0.00 | 84 | 987.5 |
| 20260901040542 | 64 | 192 | 0.0 | 2.0 | 0.00 | 0.00 | 0.00 | 84 | 987.4 |